| time (UTC) | temp C | wind direction | speed KPH | gust KPH | rain 1hr cm | rain 24hr cm | rain mn cm | humidity % | barometer mb |
| 20260509222825 | 27 | 115 | 0.0 | 14.5 | 0.00 | 0.81 | 0.81 | 72 | 1010.4 |
| 20260509222320 | 27 | 234 | 3.2 | 6.4 | 0.00 | 0.81 | 0.81 | 75 | 1010.2 |
| 20260509221816 | 27 | 102 | 6.4 | 6.4 | 0.00 | 0.81 | 0.81 | 73 | 1010.3 |
| 20260509221314 | 28 | 95 | 4.8 | 16.1 | 0.00 | 0.81 | 0.81 | 70 | 1010.3 |
| 20260509220813 | 28 | 307 | 1.6 | 9.7 | 0.00 | 0.81 | 0.81 | 71 | 1010.4 |
| 20260509220310 | 28 | 93 | 6.4 | 9.7 | 0.00 | 0.81 | 0.81 | 71 | 1010.3 |
| 20260509215806 | 28 | 87 | 9.7 | 9.7 | 0.00 | 0.81 | 0.81 | 71 | 1010.3 |
| 20260509215305 | 27 | 227 | 4.8 | 6.4 | 0.00 | 0.81 | 0.81 | 75 | 1010.3 |
| 20260509214759 | 26 | 109 | 4.8 | 12.9 | 0.00 | 0.81 | 0.81 | 76 | 1010.4 |
| 20260509214256 | 27 | 101 | 3.2 | 12.9 | 0.00 | 0.81 | 0.81 | 75 | 1010.3 |
| 20260509213753 | 27 | 133 | 6.4 | 14.5 | 0.00 | 0.81 | 0.81 | 74 | 1010.3 |
| 20260509213249 | 27 | 109 | 3.2 | 12.9 | 0.00 | 0.81 | 0.81 | 71 | 1010.5 |
| 20260509212746 | 28 | 300 | 4.8 | 14.5 | 0.00 | 0.81 | 0.81 | 69 | 1010.6 |
| 20260509212244 | 28 | 291 | 4.8 | 6.4 | 0.00 | 0.81 | 0.81 | 70 | 1010.6 |
| 20260509211739 | 28 | 148 | 1.6 | 12.9 | 0.00 | 0.81 | 0.81 | 69 | 1010.7 |
| 20260509211236 | 28 | 95 | 4.8 | 8.0 | 0.00 | 0.81 | 0.81 | 72 | 1010.6 |
| 20260509210732 | 28 | 253 | 3.2 | 6.4 | 0.00 | 0.81 | 0.81 | 71 | 1010.7 |
| 20260509210231 | 28 | 265 | 3.2 | 4.8 | 0.00 | 0.81 | 0.81 | 72 | 1010.7 |
| 20260509205730 | 27 | 276 | 3.2 | 11.3 | 0.00 | 0.81 | 0.81 | 73 | 1010.7 |
| 20260509205229 | 28 | 6 | 3.2 | 9.7 | 0.00 | 0.81 | 0.81 | 71 | 1010.7 |
| 20260509204726 | 28 | 289 | 1.6 | 8.0 | 0.00 | 0.81 | 0.81 | 70 | 1010.8 |
| 20260509204222 | 30 | 171 | 3.2 | 8.0 | 0.00 | 0.81 | 0.81 | 66 | 1010.9 |
| 20260509203718 | 29 | 140 | 1.6 | 6.4 | 0.00 | 0.81 | 0.81 | 68 | 1011.0 |
| 20260509203217 | 28 | 80 | 4.8 | 12.9 | 0.00 | 0.81 | 0.81 | 72 | 1011.1 |
| 20260509202712 | 27 | 159 | 4.8 | 14.5 | 0.00 | 0.81 | 0.81 | 73 | 1010.9 |
| 20260509202207 | 27 | 140 | 8.0 | 9.7 | 0.00 | 0.81 | 0.81 | 74 | 1011.1 |
| 20260509201702 | 28 | 105 | 4.8 | 9.7 | 0.00 | 0.81 | 0.81 | 70 | 1011.1 |
| 20260509201200 | 28 | 94 | 8.0 | 9.7 | 0.00 | 0.81 | 0.81 | 70 | 1011.1 |
| 20260509200656 | 30 | 113 | 6.4 | 9.7 | 0.00 | 0.81 | 0.81 | 66 | 1011.1 |
| 20260509200151 | 28 | 280 | 4.8 | 8.0 | 0.00 | 0.81 | 0.81 | 71 | 1011.1 |
| 20260509195648 | 27 | 245 | 3.2 | 6.4 | 0.00 | 0.81 | 0.81 | 72 | 1011.4 |
| 20260509195143 | 27 | 140 | 3.2 | 6.4 | 0.00 | 0.81 | 0.81 | 74 | 1011.6 |
| 20260509194642 | 28 | 94 | 6.4 | 9.7 | 0.00 | 0.81 | 0.81 | 71 | 1011.4 |
| 20260509194140 | 29 | 71 | 0.0 | 6.4 | 0.00 | 0.81 | 0.81 | 66 | 1011.7 |
| 20260509193636 | 30 | 218 | 4.8 | 4.8 | 0.00 | 0.81 | 0.81 | 65 | 1011.5 |
| 20260509193131 | 29 | 285 | 6.4 | 8.0 | 0.00 | 0.81 | 0.81 | 66 | 1011.7 |
| 20260509192628 | 30 | 299 | 4.8 | 6.4 | 0.00 | 0.81 | 0.81 | 65 | 1011.7 |
| 20260509192124 | 30 | 283 | 3.2 | 12.9 | 0.00 | 0.81 | 0.81 | 64 | 1011.7 |
| 20260509191623 | 29 | 265 | 0.0 | 4.8 | 0.00 | 0.81 | 0.81 | 67 | 1011.7 |
| 20260509191120 | 28 | 185 | 3.2 | 4.8 | 0.00 | 0.81 | 0.81 | 71 | 1011.8 |
| 20260509190617 | 27 | 202 | 0.0 | 6.4 | 0.00 | 0.81 | 0.81 | 73 | 1012.0 |
| 20260509190114 | 27 | 175 | 3.2 | 6.4 | 0.00 | 0.81 | 0.81 | 76 | 1011.9 |
| 20260509185612 | 27 | 129 | 3.2 | 4.8 | 0.00 | 0.81 | 0.81 | 76 | 1012.1 |
| 20260509185108 | 26 | 287 | 0.0 | 1.6 | 0.00 | 0.81 | 0.81 | 78 | 1012.0 |
| 20260509184606 | 26 | 251 | 1.6 | 9.7 | 0.00 | 0.81 | 0.81 | 79 | 1012.0 |
| 20260509184102 | 26 | 252 | 3.2 | 8.0 | 0.00 | 0.81 | 0.81 | 80 | 1012.2 |
| 20260509183558 | 25 | 198 | 6.4 | 9.7 | 0.00 | 0.81 | 0.81 | 80 | 1012.2 |
| 20260509183054 | 26 | 102 | 1.6 | 3.2 | 0.00 | 0.81 | 0.81 | 80 | 1012.2 |
| 20260509182550 | 25 | 111 | 0.0 | 8.0 | 0.00 | 0.81 | 0.81 | 81 | 1012.1 |
| 20260509182047 | 25 | 219 | 3.2 | 4.8 | 0.00 | 0.81 | 0.81 | 82 | 1012.2 |
| 20260509181546 | 25 | 91 | 6.4 | 6.4 | 0.00 | 0.81 | 0.81 | 83 | 1012.4 |
| 20260509181042 | 25 | 218 | 1.6 | 3.2 | 0.00 | 0.81 | 0.81 | 83 | 1012.2 |
| 20260509180538 | 25 | 309 | 0.0 | 1.6 | 0.00 | 0.81 | 0.81 | 84 | 1012.3 |
| 20260509180036 | 24 | 255 | 3.2 | 6.4 | 0.00 | 0.81 | 0.81 | 84 | 1012.4 |
| 20260509175531 | 25 | 200 | 1.6 | 3.2 | 0.00 | 0.81 | 0.81 | 84 | 1012.6 |
| 20260509175028 | 24 | 175 | 1.6 | 6.4 | 0.00 | 0.81 | 0.81 | 84 | 1012.6 |
| 20260509174524 | 24 | 233 | 4.8 | 6.4 | 0.00 | 0.81 | 0.81 | 84 | 1012.5 |
| 20260509174020 | 25 | 87 | 3.2 | 6.4 | 0.00 | 0.81 | 0.81 | 82 | 1012.5 |
| 20260509173514 | 25 | 135 | 0.0 | 4.8 | 0.00 | 0.81 | 0.81 | 83 | 1012.6 |
| 20260509173011 | 25 | 173 | 3.2 | 8.0 | 0.00 | 0.81 | 0.81 | 84 | 1012.7 |
| 20260509172508 | 25 | 241 | 4.8 | 4.8 | 0.00 | 0.81 | 0.81 | 84 | 1012.5 |
| 20260509172003 | 24 | 103 | 4.8 | 6.4 | 0.00 | 0.81 | 0.81 | 86 | 1012.6 |
| 20260509171500 | 24 | 171 | 4.8 | 6.4 | 0.00 | 0.81 | 0.81 | 85 | 1012.7 |
| 20260509170956 | 24 | 265 | 0.0 | 3.2 | 0.00 | 0.81 | 0.81 | 86 | 1012.8 |
| 20260509170452 | 23 | 174 | 1.6 | 3.2 | 0.00 | 0.81 | 0.81 | 89 | 1012.8 |
| 20260509165948 | 23 | 79 | 3.2 | 8.0 | 0.00 | 0.81 | 0.81 | 90 | 1012.8 |
| 20260509165447 | 23 | 125 | 4.8 | 6.4 | 0.00 | 0.81 | 0.81 | 89 | 1012.6 |
| 20260509164943 | 23 | 100 | 3.2 | 8.0 | 0.00 | 0.81 | 0.81 | 89 | 1012.7 |
| 20260509164439 | 23 | 175 | 3.2 | 4.8 | 0.00 | 0.81 | 0.81 | 89 | 1012.7 |
| 20260509163935 | 22 | 59 | 0.0 | 6.4 | 0.00 | 0.81 | 0.81 | 91 | 1012.8 |
| 20260509163433 | 22 | 168 | 6.4 | 6.4 | 0.00 | 0.81 | 0.81 | 91 | 1012.8 |
| 20260509162931 | 22 | 225 | 1.6 | 8.0 | 0.00 | 0.81 | 0.81 | 90 | 1012.7 |
| 20260509162431 | 22 | 135 | 6.4 | 8.0 | 0.00 | 0.81 | 0.81 | 90 | 1012.5 |
| 20260509161926 | 22 | 150 | 4.8 | 6.4 | 0.00 | 0.81 | 0.81 | 89 | 1012.7 |
| 20260509161422 | 22 | 136 | 3.2 | 4.8 | 0.00 | 0.81 | 0.81 | 91 | 1012.7 |
| 20260509160918 | 22 | 146 | 3.2 | 4.8 | 0.00 | 0.81 | 0.81 | 91 | 1012.7 |
| 20260509160414 | 22 | 124 | 3.2 | 8.0 | 0.00 | 0.81 | 0.81 | 90 | 1012.7 |
| 20260509155909 | 22 | 141 | 1.6 | 4.8 | 0.00 | 0.81 | 0.81 | 91 | 1012.6 |
| 20260509155406 | 22 | 132 | 4.8 | 6.4 | 0.00 | 0.81 | 0.81 | 92 | 1012.6 |
| 20260509154903 | 22 | 132 | 4.8 | 4.8 | 0.00 | 0.81 | 0.81 | 93 | 1012.8 |
| 20260509154359 | 22 | 209 | 3.2 | 4.8 | 0.00 | 0.81 | 0.81 | 93 | 1012.6 |
| 20260509153856 | 21 | 122 | 1.6 | 4.8 | 0.00 | 0.81 | 0.81 | 94 | 1012.3 |
| 20260509153353 | 21 | 103 | 3.2 | 4.8 | 0.00 | 0.81 | 0.81 | 94 | 1012.3 |
| 20260509152850 | 21 | 93 | 0.0 | 3.2 | 0.00 | 0.81 | 0.81 | 96 | 1012.5 |
| 20260509152345 | 21 | 101 | 1.6 | 4.8 | 0.00 | 0.81 | 0.81 | 96 | 1012.4 |
| 20260509151843 | 21 | 205 | 1.6 | 3.2 | 0.00 | 0.81 | 0.81 | 96 | 1012.4 |
| 20260509151339 | 21 | 102 | 4.8 | 6.4 | 0.00 | 0.81 | 0.81 | 97 | 1012.3 |
| 20260509150838 | 21 | 238 | 1.6 | 4.8 | 0.00 | 0.81 | 0.81 | 97 | 1012.3 |
| 20260509150335 | 21 | 119 | 0.0 | 1.6 | 0.00 | 0.81 | 0.81 | 97 | 1012.4 |
| 20260509145832 | 20 | 85 | 3.2 | 3.2 | 0.00 | 0.81 | 0.81 | 98 | 1012.4 |
| 20260509145327 | 20 | 100 | 4.8 | 4.8 | 0.00 | 0.81 | 0.81 | 97 | 1012.4 |
| 20260509144823 | 20 | 131 | 3.2 | 4.8 | 0.00 | 0.81 | 0.81 | 98 | 1012.5 |
| 20260509144320 | 20 | 111 | 3.2 | 4.8 | 0.00 | 0.81 | 0.81 | 97 | 1012.5 |
| 20260509143817 | 20 | 94 | 3.2 | 4.8 | 0.00 | 0.81 | 0.81 | 98 | 1012.4 |
| 20260509143315 | 20 | 140 | 3.2 | 4.8 | 0.00 | 0.81 | 0.81 | 98 | 1012.7 |
| 20260509142811 | 20 | 120 | 0.0 | 6.4 | 0.00 | 0.81 | 0.81 | 98 | 1012.7 |
| 20260509142307 | 20 | 96 | 4.8 | 6.4 | 0.00 | 0.81 | 0.81 | 98 | 1012.7 |
| 20260509141802 | 20 | 118 | 3.2 | 8.0 | 0.00 | 0.81 | 0.81 | 98 | 1012.5 |
| 20260509141300 | 20 | 160 | 1.6 | 8.0 | 0.00 | 0.81 | 0.81 | 98 | 1012.5 |
| 20260509140756 | 20 | 135 | 6.4 | 8.0 | 0.00 | 0.81 | 0.81 | 98 | 1012.5 |
| 20260509140253 | 20 | 114 | 1.6 | 4.8 | 0.00 | 0.81 | 0.81 | 98 | 1012.6 |
| 20260509135752 | 20 | 134 | 0.0 | 1.6 | 0.00 | 0.81 | 0.81 | 98 | 1012.9 |
| 20260509135249 | 20 | 87 | 1.6 | 4.8 | 0.00 | 0.81 | 0.81 | 98 | 1012.9 |
| 20260509134746 | 20 | 146 | 1.6 | 3.2 | 0.00 | 0.81 | 0.81 | 98 | 1012.7 |
| 20260509134243 | 20 | 87 | 1.6 | 4.8 | 0.00 | 0.81 | 0.81 | 98 | 1012.8 |
| 20260509133740 | 20 | 51 | 0.0 | 1.6 | 0.00 | 0.81 | 0.81 | 98 | 1012.7 |
| 20260509133237 | 20 | 49 | 0.0 | 1.6 | 0.00 | 0.81 | 0.81 | 98 | 1012.9 |
| 20260509132736 | 20 | 269 | 0.0 | 3.2 | 0.00 | 0.81 | 0.81 | 98 | 1012.9 |
| 20260509132234 | 20 | 146 | 3.2 | 3.2 | 0.00 | 0.81 | 0.81 | 98 | 1012.7 |
| 20260509131730 | 20 | 122 | 1.6 | 6.4 | 0.00 | 0.81 | 0.81 | 98 | 1012.8 |
| 20260509131227 | 20 | 17 | 0.0 | 4.8 | 0.00 | 0.81 | 0.81 | 98 | 1012.6 |
| 20260509130722 | 20 | 153 | 6.4 | 6.4 | 0.00 | 0.81 | 0.81 | 98 | 1012.7 |
| 20260509130218 | 20 | 132 | 4.8 | 6.4 | 0.00 | 0.81 | 0.81 | 98 | 1012.7 |
| 20260509125715 | 20 | 130 | 0.0 | 4.8 | 0.00 | 0.81 | 0.81 | 98 | 1012.8 |
| 20260509125213 | 20 | 92 | 4.8 | 6.4 | 0.00 | 0.81 | 0.81 | 98 | 1012.7 |
| 20260509124709 | 20 | 81 | 3.2 | 3.2 | 0.00 | 0.81 | 0.81 | 98 | 1012.6 |
| 20260509124205 | 20 | 130 | 0.0 | 6.4 | 0.00 | 0.81 | 0.81 | 98 | 1012.6 |
| 20260509123704 | 20 | 101 | 3.2 | 6.4 | 0.00 | 0.81 | 0.81 | 97 | 1012.4 |
| 20260509123200 | 20 | 82 | 4.8 | 4.8 | 0.00 | 0.81 | 0.81 | 98 | 1012.0 |
| 20260509122656 | 20 | 96 | 3.2 | 4.8 | 0.00 | 0.81 | 0.81 | 98 | 1012.3 |
| 20260509122153 | 20 | 101 | 4.8 | 4.8 | 0.00 | 0.81 | 0.81 | 98 | 1012.3 |
| 20260509121649 | 20 | 353 | 0.0 | 4.8 | 0.00 | 0.81 | 0.81 | 98 | 1012.1 |
| 20260509121148 | 19 | 166 | 0.0 | 6.4 | 0.00 | 0.81 | 0.81 | 97 | 1011.9 |
| 20260509120646 | 20 | 178 | 1.6 | 8.0 | 0.00 | 0.81 | 0.81 | 97 | 1011.9 |
| 20260509120143 | 20 | 119 | 3.2 | 8.0 | 0.00 | 0.81 | 0.81 | 97 | 1012.1 |
| 20260509115640 | 20 | 70 | 8.0 | 9.7 | 0.00 | 0.81 | 0.81 | 98 | 1012.1 |
| 20260509115138 | 20 | 92 | 8.0 | 9.7 | 0.00 | 0.81 | 0.81 | 97 | 1011.9 |
| 20260509114636 | 20 | 91 | 9.7 | 12.9 | 0.00 | 0.81 | 0.81 | 97 | 1012.1 |
| 20260509114135 | 20 | 67 | 3.2 | 3.2 | 0.00 | 0.81 | 0.81 | 97 | 1012.0 |
| 20260509113633 | 20 | 85 | 8.0 | 8.0 | 0.00 | 0.81 | 0.81 | 97 | 1011.9 |
| 20260509113130 | 20 | 121 | 3.2 | 4.8 | 0.00 | 0.81 | 0.81 | 97 | 1011.8 |
| 20260509112626 | 20 | 85 | 6.4 | 8.0 | 0.00 | 0.81 | 0.81 | 97 | 1011.5 |
| 20260509112123 | 20 | 78 | 4.8 | 9.7 | 0.00 | 0.81 | 0.81 | 97 | 1011.7 |
| 20260509111620 | 20 | 101 | 6.4 | 8.0 | 0.00 | 0.81 | 0.81 | 97 | 1011.8 |
| 20260509111117 | 20 | 17 | 1.6 | 3.2 | 0.00 | 0.81 | 0.81 | 97 | 1011.7 |
| 20260509110614 | 20 | 95 | 4.8 | 4.8 | 0.00 | 0.81 | 0.81 | 97 | 1011.3 |
| 20260509110111 | 20 | 89 | 1.6 | 3.2 | 0.00 | 0.81 | 0.81 | 97 | 1011.2 |
| 20260509105609 | 20 | 144 | 1.6 | 4.8 | 0.00 | 0.81 | 0.81 | 97 | 1011.2 |
| 20260509105107 | 20 | 117 | 3.2 | 9.7 | 0.00 | 0.81 | 0.81 | 97 | 1011.3 |
| 20260509104603 | 20 | 124 | 3.2 | 6.4 | 0.00 | 0.81 | 0.81 | 97 | 1011.1 |
| 20260509104100 | 20 | 142 | 3.2 | 3.2 | 0.00 | 0.81 | 0.81 | 97 | 1011.4 |
| 20260509103558 | 20 | 127 | 3.2 | 4.8 | 0.00 | 0.81 | 0.81 | 97 | 1011.3 |
| 20260509103056 | 20 | 129 | 1.6 | 6.4 | 0.00 | 0.81 | 0.81 | 97 | 1011.2 |
| 20260509102553 | 20 | 142 | 4.8 | 6.4 | 0.00 | 0.81 | 0.81 | 97 | 1011.4 |
| 20260509102050 | 20 | 132 | 0.0 | 4.8 | 0.00 | 0.81 | 0.81 | 97 | 1011.2 |
| 20260509101546 | 20 | 130 | 1.6 | 4.8 | 0.00 | 0.81 | 0.81 | 97 | 1011.2 |
| 20260509101043 | 20 | 137 | 3.2 | 6.4 | 0.00 | 0.81 | 0.81 | 97 | 1011.3 |
| 20260509100540 | 20 | 126 | 3.2 | 4.8 | 0.00 | 0.81 | 0.81 | 97 | 1011.3 |
| 20260509100038 | 20 | 135 | 0.0 | 4.8 | 0.00 | 0.81 | 0.81 | 97 | 1011.4 |
| 20260509095534 | 20 | 147 | 3.2 | 4.8 | 0.00 | 0.81 | 0.81 | 97 | 1011.3 |
| 20260509095032 | 20 | 128 | 3.2 | 3.2 | 0.00 | 0.81 | 0.81 | 97 | 1011.2 |
| 20260509094527 | 20 | 129 | 0.0 | 3.2 | 0.00 | 0.81 | 0.81 | 96 | 1011.1 |
| 20260509094025 | 20 | 139 | 3.2 | 4.8 | 0.00 | 0.81 | 0.81 | 96 | 1011.0 |
| 20260509093523 | 20 | 121 | 0.0 | 1.6 | 0.00 | 0.81 | 0.81 | 96 | 1011.0 |
| 20260509093021 | 20 | 98 | 0.0 | 1.6 | 0.00 | 0.81 | 0.81 | 96 | 1011.0 |
| 20260509092518 | 20 | 230 | 0.0 | 3.2 | 0.00 | 0.81 | 0.81 | 96 | 1011.1 |
| 20260509092017 | 20 | 238 | 3.2 | 4.8 | 0.00 | 0.81 | 0.81 | 96 | 1011.1 |
| 20260509091514 | 20 | 272 | 3.2 | 4.8 | 0.00 | 0.81 | 0.81 | 96 | 1011.2 |
| 20260509091010 | 20 | 87 | 3.2 | 4.8 | 0.00 | 0.81 | 0.81 | 96 | 1011.1 |
| 20260509090508 | 20 | 251 | 3.2 | 4.8 | 0.00 | 0.81 | 0.81 | 96 | 1011.2 |
| 20260509090005 | 20 | 234 | 4.8 | 6.4 | 0.00 | 0.81 | 0.81 | 96 | 1011.2 |
| 20260509085502 | 19 | 228 | 1.6 | 6.4 | 0.00 | 0.81 | 0.81 | 95 | 1011.3 |
| 20260509084958 | 19 | 214 | 3.2 | 3.2 | 0.00 | 0.81 | 0.81 | 95 | 1011.5 |
| 20260509084455 | 19 | 238 | 3.2 | 4.8 | 0.00 | 0.81 | 0.81 | 95 | 1011.2 |
| 20260509083952 | 19 | 343 | 3.2 | 4.8 | 0.00 | 0.81 | 0.81 | 95 | 1011.3 |
| 20260509083450 | 19 | 265 | 1.6 | 6.4 | 0.00 | 0.81 | 0.81 | 94 | 1011.2 |
| 20260509082946 | 19 | 226 | 4.8 | 6.4 | 0.00 | 0.81 | 0.81 | 94 | 1011.4 |
| 20260509082443 | 20 | 235 | 3.2 | 8.0 | 0.00 | 0.81 | 0.81 | 93 | 1011.3 |
| 20260509081940 | 20 | 278 | 6.4 | 9.7 | 0.00 | 0.81 | 0.81 | 94 | 1011.4 |
| 20260509081438 | 19 | 122 | 1.6 | 6.4 | 0.00 | 0.81 | 0.81 | 94 | 1011.3 |
| 20260509080935 | 19 | 260 | 3.2 | 4.8 | 0.00 | 0.81 | 0.81 | 94 | 1011.4 |
| 20260509080433 | 19 | 339 | 1.6 | 6.4 | 0.00 | 0.81 | 0.81 | 94 | 1011.2 |
| 20260509075931 | 19 | 234 | 3.2 | 8.0 | 0.00 | 0.81 | 0.81 | 94 | 1011.1 |
| 20260509075427 | 19 | 229 | 9.7 | 9.7 | 0.00 | 0.81 | 0.81 | 95 | 1010.9 |
| 20260509074926 | 19 | 241 | 4.8 | 6.4 | 0.00 | 0.81 | 0.81 | 95 | 1011.2 |
| 20260509074423 | 19 | 247 | 11.3 | 11.3 | 0.00 | 0.81 | 0.81 | 96 | 1011.2 |
| 20260509073919 | 20 | 226 | 3.2 | 4.8 | 0.00 | 0.81 | 0.81 | 96 | 1011.4 |
| 20260509073415 | 20 | 289 | 1.6 | 6.4 | 0.00 | 0.81 | 0.81 | 96 | 1011.5 |
| 20260509072912 | 20 | 200 | 1.6 | 8.0 | 0.00 | 0.81 | 0.81 | 96 | 1011.5 |
| 20260509072408 | 20 | 237 | 4.8 | 8.0 | 0.00 | 0.81 | 0.81 | 96 | 1011.4 |
| 20260509071905 | 20 | 138 | 3.2 | 4.8 | 0.00 | 0.81 | 0.81 | 96 | 1011.3 |
| 20260509071402 | 20 | 132 | 8.0 | 12.9 | 0.00 | 0.81 | 0.81 | 96 | 1011.6 |
| 20260509070900 | 20 | 351 | 0.0 | 9.7 | 0.23 | 0.81 | 0.81 | 96 | 1011.6 |
| 20260509070356 | 20 | 125 | 8.0 | 9.7 | 0.23 | 0.79 | 0.79 | 96 | 1011.2 |
| 20260509065852 | 20 | 195 | 3.2 | 22.5 | 0.05 | 0.76 | 0.76 | 96 | 1011.2 |
| 20260509065349 | 20 | 131 | 6.4 | 14.5 | 0.00 | 0.74 | 0.74 | 96 | 1011.0 |
| 20260509064844 | 20 | 205 | 6.4 | 12.9 | 0.05 | 0.74 | 0.74 | 96 | 1011.5 |
| 20260509064342 | 20 | 216 | 8.0 | 14.5 | 0.30 | 0.74 | 0.74 | 95 | 1011.0 |
| 20260509063840 | 20 | 158 | 4.8 | 9.7 | 0.48 | 0.74 | 0.74 | 95 | 1010.7 |
| 20260509063336 | 20 | 148 | 8.0 | 11.3 | 0.48 | 0.69 | 0.69 | 95 | 1011.8 |
| 20260509062833 | 20 | 182 | 4.8 | 8.0 | 0.66 | 0.64 | 0.64 | 94 | 1012.6 |
| 20260509062330 | 20 | 172 | 1.6 | 4.8 | 1.02 | 0.58 | 0.58 | 94 | 1013.2 |
| 20260509061827 | 20 | 9 | 1.6 | 4.8 | 2.46 | 0.51 | 0.51 | 93 | 1013.7 |
| 20260509061325 | 20 | 110 | 0.0 | 4.8 | 2.64 | 0.43 | 0.43 | 92 | 1013.7 |
| 20260509060822 | 20 | 10 | 8.0 | 12.9 | 0.97 | 0.15 | 0.15 | 90 | 1013.9 |
| 20260509060319 | 21 | 60 | 3.2 | 12.9 | 0.00 | 0.00 | 0.00 | 89 | 1014.0 |
| 20260509055814 | 21 | 144 | 3.2 | 11.3 | 0.00 | 0.00 | 0.00 | 89 | 1013.8 |
| 20260509055310 | 21 | 110 | 3.2 | 3.2 | 0.00 | 0.00 | 0.00 | 90 | 1013.5 |
| 20260509054807 | 21 | 159 | 1.6 | 4.8 | 0.00 | 0.00 | 0.00 | 90 | 1013.1 |
| 20260509054304 | 21 | 191 | 1.6 | 4.8 | 0.00 | 0.00 | 0.00 | 90 | 1013.1 |
| 20260509053802 | 21 | 147 | 3.2 | 3.2 | 0.00 | 0.00 | 0.00 | 90 | 1013.3 |
| 20260509053259 | 21 | 223 | 3.2 | 3.2 | 0.00 | 0.00 | 0.00 | 90 | 1013.1 |
| 20260509052757 | 21 | 233 | 1.6 | 3.2 | 0.00 | 0.00 | 0.00 | 90 | 1013.3 |
| 20260509052254 | 21 | 141 | 0.0 | 6.4 | 0.00 | 0.00 | 0.00 | 90 | 1013.1 |
| 20260509051752 | 20 | 149 | 3.2 | 4.8 | 0.00 | 0.00 | 0.00 | 90 | 1013.2 |
| 20260509051250 | 20 | 147 | 6.4 | 8.0 | 0.00 | 0.00 | 0.00 | 90 | 1012.9 |
| 20260509050746 | 20 | 214 | 3.2 | 4.8 | 0.00 | 0.00 | 0.00 | 90 | 1012.7 |
| 20260509050242 | 20 | 158 | 4.8 | 8.0 | 0.00 | 0.00 | 0.00 | 89 | 1012.9 |
| 20260509045740 | 20 | 154 | 3.2 | 4.8 | 0.00 | 0.08 | 0.08 | 89 | 1012.6 |
| 20260509045236 | 20 | 128 | 4.8 | 8.0 | 0.00 | 0.08 | 0.08 | 89 | 1012.8 |
| 20260509044734 | 20 | 130 | 4.8 | 9.7 | 0.00 | 0.08 | 0.08 | 89 | 1012.9 |
| 20260509044232 | 20 | 155 | 4.8 | 9.7 | 0.00 | 0.08 | 0.08 | 89 | 1012.8 |
| 20260509043727 | 20 | 133 | 1.6 | 4.8 | 0.00 | 0.08 | 0.08 | 89 | 1012.7 |
| 20260509043224 | 20 | 122 | 6.4 | 8.0 | 0.00 | 0.08 | 0.08 | 88 | 1012.7 |
| 20260509042720 | 20 | 125 | 6.4 | 8.0 | 0.00 | 0.08 | 0.08 | 88 | 1012.8 |
| 20260509042216 | 20 | 150 | 9.7 | 9.7 | 0.00 | 0.08 | 0.08 | 88 | 1012.6 |
| 20260509041713 | 20 | 185 | 3.2 | 9.7 | 0.00 | 0.08 | 0.08 | 87 | 1012.7 |
| 20260509041210 | 20 | 159 | 3.2 | 6.4 | 0.00 | 0.08 | 0.08 | 87 | 1012.5 |
| 20260509040709 | 20 | 71 | 6.4 | 9.7 | 0.00 | 0.08 | 0.08 | 86 | 1012.3 |
| 20260509040205 | 20 | 117 | 6.4 | 9.7 | 0.00 | 0.08 | 0.08 | 86 | 1012.5 |
| 20260509035702 | 20 | 101 | 3.2 | 8.0 | 0.00 | 0.08 | 0.08 | 86 | 1012.6 |
| 20260509035159 | 20 | 132 | 8.0 | 12.9 | 0.00 | 0.08 | 0.08 | 85 | 1012.3 |
| 20260509034656 | 20 | 144 | 4.8 | 6.4 | 0.00 | 0.08 | 0.08 | 84 | 1012.4 |
| 20260509034153 | 20 | 138 | 4.8 | 8.0 | 0.00 | 0.08 | 0.08 | 83 | 1012.3 |
| 20260509033650 | 20 | 144 | 4.8 | 6.4 | 0.00 | 0.08 | 0.08 | 83 | 1012.4 |
| 20260509033147 | 20 | 127 | 4.8 | 8.0 | 0.00 | 0.08 | 0.08 | 83 | 1012.4 |
| 20260509032645 | 20 | 144 | 6.4 | 6.4 | 0.00 | 0.08 | 0.08 | 83 | 1012.3 |
| 20260509032141 | 20 | 189 | 3.2 | 3.2 | 0.00 | 0.08 | 0.08 | 83 | 1012.2 |
| 20260509031639 | 20 | 123 | 3.2 | 4.8 | 0.00 | 0.08 | 0.08 | 82 | 1012.3 |
| 20260509031136 | 20 | 123 | 3.2 | 4.8 | 0.00 | 0.08 | 0.08 | 82 | 1012.2 |
| 20260509030635 | 20 | 109 | 4.8 | 4.8 | 0.00 | 0.08 | 0.08 | 82 | 1012.1 |
| 20260509030131 | 20 | 119 | 3.2 | 4.8 | 0.00 | 0.08 | 0.08 | 82 | 1011.9 |
| 20260509025627 | 20 | 141 | 1.6 | 4.8 | 0.00 | 0.08 | 0.08 | 82 | 1011.8 |
| 20260509025123 | 20 | 86 | 3.2 | 4.8 | 0.00 | 0.08 | 0.08 | 82 | 1011.7 |
| 20260509024619 | 20 | 89 | 3.2 | 4.8 | 0.00 | 0.08 | 0.08 | 82 | 1011.7 |
| 20260509024115 | 20 | 135 | 3.2 | 6.4 | 0.00 | 0.08 | 0.08 | 81 | 1011.5 |
| 20260509023613 | 20 | 178 | 1.6 | 4.8 | 0.00 | 0.08 | 0.08 | 81 | 1011.5 |
| 20260509023110 | 20 | 147 | 3.2 | 4.8 | 0.00 | 0.08 | 0.08 | 80 | 1011.4 |
| 20260509022606 | 20 | 138 | 3.2 | 4.8 | 0.00 | 0.08 | 0.08 | 79 | 1011.2 |
| 20260509022104 | 21 | 175 | 3.2 | 4.8 | 0.00 | 0.08 | 0.08 | 78 | 1011.3 |
| 20260509021601 | 21 | 127 | 1.6 | 4.8 | 0.00 | 0.08 | 0.08 | 78 | 1011.4 |
| 20260509021058 | 21 | 122 | 3.2 | 6.4 | 0.00 | 0.08 | 0.08 | 77 | 1011.1 |
| 20260509020556 | 21 | 76 | 0.0 | 6.4 | 0.00 | 0.08 | 0.08 | 77 | 1011.0 |
| 20260509020053 | 21 | 68 | 3.2 | 4.8 | 0.00 | 0.08 | 0.08 | 76 | 1011.1 |
| 20260509015552 | 21 | 116 | 3.2 | 8.0 | 0.00 | 0.08 | 0.08 | 76 | 1011.2 |
| 20260509015049 | 21 | 76 | 3.2 | 6.4 | 0.00 | 0.08 | 0.08 | 75 | 1010.9 |
| 20260509014545 | 21 | 140 | 3.2 | 8.0 | 0.00 | 0.08 | 0.08 | 75 | 1010.8 |
| 20260509014042 | 21 | 135 | 3.2 | 6.4 | 0.00 | 0.08 | 0.08 | 75 | 1011.0 |
| 20260509013539 | 21 | 143 | 3.2 | 4.8 | 0.00 | 0.08 | 0.08 | 74 | 1010.8 |
| 20260509013034 | 21 | 156 | 3.2 | 6.4 | 0.00 | 0.08 | 0.08 | 73 | 1010.8 |
| 20260509012531 | 21 | 121 | 4.8 | 6.4 | 0.00 | 0.08 | 0.08 | 73 | 1011.0 |
| 20260509012028 | 21 | 94 | 4.8 | 6.4 | 0.00 | 0.08 | 0.08 | 73 | 1010.9 |
| 20260509011526 | 22 | 148 | 4.8 | 6.4 | 0.00 | 0.08 | 0.08 | 72 | 1010.8 |
| 20260509011023 | 22 | 130 | 6.4 | 6.4 | 0.00 | 0.08 | 0.08 | 71 | 1010.8 |
| 20260509010521 | 22 | 166 | 3.2 | 4.8 | 0.00 | 0.08 | 0.08 | 70 | 1010.9 |
| 20260509010017 | 22 | 178 | 1.6 | 3.2 | 0.00 | 0.08 | 0.08 | 70 | 1010.8 |
| 20260509005515 | 22 | 136 | 3.2 | 3.2 | 0.00 | 0.08 | 0.08 | 69 | 1010.8 |
| 20260509005015 | 22 | 217 | 1.6 | 3.2 | 0.00 | 0.08 | 0.08 | 68 | 1010.7 |
| 20260509004512 | 22 | 157 | 0.0 | 3.2 | 0.00 | 0.08 | 0.08 | 68 | 1010.7 |
| 20260509004009 | 22 | 142 | 6.4 | 12.9 | 0.00 | 0.08 | 0.08 | 68 | 1010.5 |
| 20260509003508 | 23 | 203 | 8.0 | 19.3 | 0.00 | 0.08 | 0.08 | 67 | 1010.3 |
| 20260509003004 | 23 | 212 | 11.3 | 14.5 | 0.00 | 0.08 | 0.08 | 67 | 1010.1 |
| 20260509002502 | 23 | 141 | 8.0 | 16.1 | 0.00 | 0.08 | 0.08 | 67 | 1010.0 |
| 20260509001959 | 23 | 127 | 8.0 | 12.9 | 0.00 | 0.08 | 0.08 | 66 | 1010.0 |
| 20260509001455 | 23 | 144 | 14.5 | 19.3 | 0.00 | 0.08 | 0.08 | 66 | 1009.9 |
| 20260509000952 | 23 | 168 | 6.4 | 16.1 | 0.00 | 0.08 | 0.08 | 66 | 1009.7 |
| 20260509000451 | 23 | 161 | 8.0 | 11.3 | 0.00 | 0.08 | 0.08 | 65 | 1009.7 |
| 20260508235946 | 23 | 152 | 11.3 | 14.5 | 0.00 | 0.08 | 0.08 | 63 | 1009.7 |
| 20260508235444 | 23 | 145 | 9.7 | 19.3 | 0.00 | 0.08 | 0.08 | 61 | 1009.6 |
| 20260508234940 | 24 | 147 | 8.0 | 14.5 | 0.00 | 0.08 | 0.08 | 60 | 1010.1 |
| 20260508234437 | 24 | 128 | 8.0 | 9.7 | 0.00 | 0.08 | 0.08 | 59 | 1010.4 |
| 20260508233935 | 25 | 137 | 4.8 | 11.3 | 0.00 | 0.08 | 0.08 | 57 | 1010.8 |
| 20260508233434 | 25 | 165 | 4.8 | 8.0 | 0.00 | 0.08 | 0.08 | 55 | 1010.9 |
| 20260508232930 | 26 | 220 | 1.6 | 9.7 | 0.00 | 0.08 | 0.08 | 53 | 1011.0 |
| 20260508232427 | 26 | 140 | 3.2 | 6.4 | 0.00 | 0.08 | 0.08 | 53 | 1011.1 |
| 20260508231925 | 26 | 175 | 1.6 | 9.7 | 0.00 | 0.08 | 0.08 | 54 | 1011.0 |
| 20260508231422 | 25 | 170 | 3.2 | 11.3 | 0.00 | 0.08 | 0.08 | 55 | 1010.8 |
| 20260508230919 | 25 | 146 | 4.8 | 11.3 | 0.00 | 0.08 | 0.08 | 55 | 1011.2 |
| 20260508230415 | 25 | 143 | 8.0 | 8.0 | 0.00 | 0.08 | 0.08 | 54 | 1011.7 |
| 20260508225912 | 25 | 161 | 3.2 | 6.4 | 0.00 | 0.08 | 0.08 | 55 | 1011.7 |
| 20260508225409 | 25 | 146 | 3.2 | 6.4 | 0.00 | 0.08 | 0.08 | 55 | 1011.7 |
| 20260508224907 | 25 | 147 | 3.2 | 8.0 | 0.00 | 0.08 | 0.08 | 55 | 1011.4 |
| 20260508224404 | 25 | 148 | 3.2 | 9.7 | 0.00 | 0.08 | 0.08 | 54 | 1011.7 |
| 20260508223901 | 25 | 147 | 3.2 | 8.0 | 0.00 | 0.08 | 0.08 | 51 | 1012.2 |
| 20260508223359 | 26 | 242 | 3.2 | 6.4 | 0.00 | 0.08 | 0.08 | 51 | 1012.1 |